Simultaneous Nadir Overpasses (SNOs) Predictions

Prediction of SNOs over PacNW region [( 10.00, 139.50) to ( 22.70, 165.60)] between NOAA-19 and NPP Satellites:

Table of predicted SNOs over PacNW region for the next 30.0 days since TLE Epoch: 12/31/2012
Index Date (NOAA-19) Time (NOAA-19) NOAA-19 Lat,Lon Date (NPP) Time (NPP) NPP Lat,Lon Distance(km) Time Diff (sec)
1 01/03/2013 15:45:07 22.62, 151.17 01/03/2013 15:46:55 23.39, 147.85 350.61 108
2 01/04/2013 03:01:39 22.67, 154.60 01/04/2013 02:59:39 22.17, 152.30 242.39 120
3 01/16/2013 02:32:21 19.60, 162.52 01/16/2013 02:33:14 18.89, 159.48 328.21 53
4 01/16/2013 15:09:05 11.04, 158.25 01/16/2013 15:05:46 11.54, 156.14 236.97 199
5 01/28/2013 03:43:39 11.41, 146.12 01/28/2013 03:46:52 10.56, 142.45 411.73 193
6 01/28/2013 14:40:46 10.46, 165.28 01/28/2013 14:40:23 11.07, 162.41 320.70 23
7 01/28/2013 16:20:19 19.33, 141.88 01/28/2013 16:19:22 19.93, 139.13 295.24 57
8 01/29/2013 03:35:59 22.69, 146.11 01/29/2013 03:32:22 26.58, 143.32 516.37 217




NCC Satellite Simultaneous Nadir Overpasses (SNOs) Prediction Service
